Temp
-16 -16 -17 -17 -16 -17 -17 -17 -17 -17 -17 -16 -16 -15 -15 -14 -14 -13 -13 -13 -12 -12 -12 -12 -12 -12 -12 -12 -12 -12 -10 -10 -10 -11 -11 -11 -11 -11 -10 -10 -11 -11 -10 -10 -10
-16 -16 -16 -17 -17 -17 -17 -17 -17 -17 -17 -17 -16 -16 -15 -15 -14 -14 -14 -13 -13 -13 -13 -12 -12 -12 -12 -12 -12 -11 -10 -11 -11 -11 -11 -11 -10 -10 -10 -10 -11 -10 -10 -10 -10
-16 -16 -16 -17 -17 -17 -17 -17 -17 -17 -17 -18 -17 -16 -16 -15 -15 -15 -14 -14 -13 -13 -13 -13 -12 -12 -12 -12 -12 -11 -11 -11 -11 -11 -11 -10 -10 -10 -10 -10 -11 -11 -10 -11 -11
-17 -16 -17 -17 -17 -17 -18 -17 -17 -17 -17 -17 -17 -17 -16 -15 -15 -15 -14 -14 -14 -13 -13 -13 -13 -12 -12 -12 -12 -11 -11 -11 -11 -11 -11 -10 -10 -10 -10 -10 -10 -11 -10 -10 -10
-16 -18 -17 -18 -18 -18 -18 -18 -17 -17 -17 -17 -17 -17 -16 -16 -16 -15 -15 -15 -14 -14 -13 -13 -13 -12 -12 -12 -12 -11 -11 -11 -11 -11 -10 -10 -11 -10 -10 -10 -11 -11 -11 -10 -10
-17 -17 -18 -17 -18 -18 -18 -18 -18 -18 -17 -17 -17 -17 -17 -16 -16 -16 -16 -15 -15 -14 -14 -13 -13 -13 -12 -12 -12 -11 -11 -10 -10 -11 -10 -11 -11 -10 -9 -10 -10 -11 -10 -10 -10
-18 -18 -19 -20 -19 -19 -18 -18 -19 -18 -18 -17 -17 -17 -17 -17 -16 -16 -16 -15 -15 -15 -14 -14 -14 -13 -13 -12 -12 -12 -11 -11 -11 -12 -11 -12 -10 -9 -10 -10 -9 -10 -10 -10 -10
-20 -21 -21 -21 -21 -20 -20 -19 -18 -19 -18 -18 -18 -17 -17 -17 -16 -17 -16 -16 -16 -15 -15 -15 -14 -14 -13 -13 -12 -12 -12 -12 -13 -12 -12 -11 -10 -10 -11 -10 -9 -9 -9 -10 -10
-23 -23 -23 -23 -23 -22 -21 -20 -19 -19 -19 -18 -18 -17 -17 -17 -17 -17 -16 -16 -16 -16 -15 -15 -14 -14 -14 -13 -13 -12 -12 -12 -13 -12 -12 -11 -10 -11 -10 -9 -9 -9 -9 -10 -10
-25 -25 -25 -25 -25 -25 -23 -21 -20 -19 -19 -20 -19 -18 -17 -17 -17 -17 -17 -16 -16 -16 -16 -16 -15 -14 -14 -13 -13 -14 -13 -12 -12 -12 -11 -11 -10 -10 -10 -9 -9 -9 -10 -10 -10
-25 -26 -27 -27 -27 -27 -26 -23 -22 -20 -19 -20 -18 -17 -17 -17 -17 -18 -17 -17 -17 -16 -16 -15 -15 -15 -15 -15 -14 -14 -13 -13 -13 -13 -12 -12 -11 -10 -11 -10 -10 -10 -10 -10 -10
-26 -27 -28 -27 -27 -27 -26 -24 -23 -21 -20 -20 -19 -18 -18 -18 -18 -18 -18 -17 -17 -16 -16 -15 -15 -16 -16 -15 -14 -13 -13 -14 -14 -13 -12 -12 -11 -11 -11 -11 -11 -11 -11 -11 -11
-26 -28 -28 -27 -27 -27 -26 -25 -23 -21 -20 -20 -19 -18 -18 -18 -18 -18 -18 -18 -17 -17 -16 -16 -16 -16 -16 -15 -15 -15 -14 -14 -14 -14 -13 -12 -11 -12 -12 -12 -12 -12 -12 -11 -11
-26 -27 -27 -27 -27 -27 -27 -24 -23 -21 -20 -20 -20 -18 -18 -18 -18 -18 -18 -18 -17 -17 -16 -16 -16 -16 -16 -16 -16 -15 -15 -15 -14 -15 -14 -13 -11 -12 -12 -12 -12 -12 -12 -12 -12
-27 -27 -27 -26 -27 -27 -26 -25 -23 -22 -21 -20 -20 -19 -18 -18 -18 -17 -17 -17 -17 -17 -16 -16 -16 -16 -16 -16 -15 -15 -15 -15 -15 -14 -14 -14 -13 -11 -13 -13 -13 -13 -12 -13 -13
-27 -27 -27 -27 -27 -26 -26 -25 -24 -22 -21 -21 -20 -18 -18 -18 -18 -18 -17 -17 -17 -17 -16 -16 -17 -17 -17 -16 -16 -16 -15 -15 -15 -15 -14 -14 -14 -11 -12 -12 -13 -12 -12 -12 -12
-26 -27 -27 -27 -26 -26 -24 -23 -22 -21 -21 -21 -19 -19 -18 -18 -18 -18 -17 -17 -17 -16 -17 -17 -17 -17 -17 -16 -16 -16 -16 -15 -15 -14 -14 -14 -13 -12 -12 -13 -13 -13 -13 -13 -13
-26 -26 -26 -26 -26 -24 -22 -21 -21 -20 -21 -20 -19 -19 -19 -18 -18 -18 -17 -17 -17 -17 -17 -17 -17 -17 -16 -16 -16 -15 -15 -15 -14 -14 -14 -13 -12 -12 -13 -13 -13 -14 -14 -14 -14
-26 -26 -26 -26 -23 -23 -21 -21 -22 -21 -20 -19 -19 -19 -18 -18 -18 -18 -18 -17 -17 -17 -17 -17 -17 -17 -16 -16 -16 -16 -16 -15 -15 -15 -14 -13 -13 -13 -13 -14 -14 -15 -14 -14 -14
-26 -25 -25 -23 -22 -22 -21 -21 -21 -20 -19 -20 -19 -19 -18 -18 -18 -18 -17 -17 -17 -17 -17 -17 -16 -16 -16 -16 -16 -16 -15 -15 -15 -14 -14 -13 -13 -13 -14 -15 -14 -14 -14 -14 -14
-25 -24 -22 -22 -22 -22 -22 -21 -20 -20 -20 -19 -19 -18 -18 -18 -18 -18 -17 -17 -17 -17 -16 -16 -16 -17 -17 -16 -16 -16 -15 -15 -15 -15 -15 -14 -13 -15 -15 -14 -14 -14 -15 -15 -15
-23 -22 -22 -22 -22 -21 -21 -21 -20 -20 -19 -19 -18 -19 -19 -18 -18 -18 -18 -18 -17 -17 -17 -16 -16 -17 -16 -16 -16 -15 -15 -15 -15 -15 -15 -15 -13 -15 -15 -15 -15 -15 -16 -17 -17
-22 -21 -22 -22 -22 -22 -21 -20 -20 -20 -19 -19 -18 -19 -18 -19 -19 -18 -18 -17 -17 -17 -17 -17 -17 -17 -16 -16 -15 -16 -16 -16 -15 -15 -16 -15 -15 -15 -15 -15 -15 -16 -17 -18 -18
-21 -20 -20 -21 -21 -21 -21 -20 -20 -20 -19 -19 -19 -19 -19 -18 -18 -18 -18 -17 -17 -17 -17 -17 -17 -16 -16 -16 -16 -16 -16 -15 -15 -15 -14 -16 -14 -14 -14 -13 -15 -16 -17 -19 -19
-20 -20 -20 -20 -20 -21 -20 -20 -20 -20 -19 -19 -19 -19 -19 -19 -18 -18 -18 -18 -17 -17 -17 -17 -17 -17 -16 -16 -16 -16 -16 -16 -15 -16 -15 -15 -15 -14 -14 -14 -15 -15 -16 -19 -20
-20 -20 -20 -19 -19 -20 -19 -19 -20 -19 -20 -19 -19 -19 -19 -19 -19 -19 -18 -18 -18 -17 -17 -17 -17 -17 -16 -16 -16 -16 -16 -15 -16 -16 -15 -15 -15 -14 -15 -15 -15 -15 -16 -19 -20
-19 -19 -19 -19 -19 -19 -19 -19 -19 -19 -19 -19 -19 -19 -19 -19 -19 -19 -18 -18 -18 -17 -17 -17 -17 -17 -16 -16 -16 -16 -16 -16 -16 -15 -15 -14 -14 -14 -15 -15 -15 -16 -16 -18 -20
Height
5684 5681 5678 5676 5675 5674 5673 5673 5673 5674 5677 5680 5684 5688 5693 5699 5706 5714 5721 5725 5731 5736 5740 5747 5753 5757 5761 5765 5770 5774 5775 5781 5790 5794 5802 5801 5801 5799 5798 5805 5808 5808 5811 5811 5814
5674 5670 5668 5664 5663 5664 5663 5663 5664 5666 5666 5670 5674 5678 5682 5689 5696 5706 5709 5716 5722 5729 5734 5739 5744 5748 5755 5759 5762 5766 5771 5778 5784 5785 5791 5793 5792 5793 5793 5800 5804 5801 5806 5808 5806
5665 5658 5654 5651 5648 5649 5651 5652 5653 5655 5658 5659 5664 5668 5673 5678 5687 5695 5699 5707 5713 5718 5724 5730 5735 5741 5746 5751 5756 5761 5766 5771 5775 5777 5780 5784 5788 5788 5789 5794 5803 5798 5800 5799 5800
5651 5645 5638 5634 5633 5632 5634 5638 5640 5643 5647 5651 5653 5658 5663 5670 5678 5684 5690 5698 5703 5708 5716 5721 5727 5733 5738 5744 5750 5754 5758 5761 5768 5770 5772 5778 5783 5783 5785 5789 5794 5794 5790 5795 5798
5633 5626 5622 5616 5616 5614 5616 5620 5625 5629 5634 5639 5643 5648 5655 5662 5669 5675 5681 5688 5694 5701 5707 5713 5719 5725 5731 5736 5740 5745 5749 5754 5759 5762 5764 5770 5776 5776 5778 5781 5787 5789 5787 5787 5792
5609 5599 5594 5593 5591 5594 5597 5602 5608 5615 5622 5628 5633 5639 5646 5655 5660 5666 5672 5678 5685 5691 5698 5704 5711 5717 5723 5727 5732 5736 5741 5745 5751 5756 5758 5764 5770 5769 5772 5774 5780 5780 5781 5781 5783
5575 5561 5551 5554 5557 5565 5572 5580 5590 5600 5609 5616 5622 5630 5638 5646 5653 5660 5664 5670 5677 5683 5690 5696 5701 5708 5715 5719 5724 5729 5735 5740 5744 5748 5750 5753 5761 5762 5764 5766 5769 5773 5774 5775 5778
5542 5531 5524 5522 5524 5528 5541 5553 5570 5583 5594 5604 5611 5620 5630 5635 5645 5651 5657 5664 5671 5676 5682 5688 5694 5700 5707 5712 5717 5721 5726 5731 5736 5737 5743 5745 5755 5757 5756 5758 5761 5765 5768 5769 5770
5517 5511 5506 5504 5506 5508 5518 5530 5548 5566 5581 5593 5600 5611 5620 5628 5638 5644 5651 5658 5664 5669 5675 5681 5686 5693 5698 5703 5709 5713 5718 5723 5727 5729 5732 5738 5743 5748 5748 5750 5755 5759 5761 5763 5764
5502 5498 5495 5494 5494 5495 5502 5513 5527 5551 5569 5583 5590 5602 5615 5624 5630 5637 5644 5652 5659 5664 5670 5675 5681 5686 5691 5695 5703 5708 5710 5713 5718 5721 5723 5728 5733 5739 5741 5743 5748 5751 5753 5754 5756
5493 5489 5489 5489 5489 5490 5494 5500 5517 5538 5555 5570 5587 5597 5609 5614 5622 5629 5638 5646 5652 5659 5665 5670 5676 5681 5687 5690 5694 5698 5702 5708 5710 5714 5719 5724 5730 5734 5735 5736 5739 5741 5743 5746 5748
5488 5486 5487 5489 5488 5489 5489 5492 5506 5531 5552 5562 5577 5588 5599 5608 5617 5625 5633 5643 5649 5655 5660 5667 5671 5678 5681 5683 5687 5692 5697 5702 5704 5706 5710 5715 5721 5724 5726 5730 5730 5733 5735 5737 5739
5484 5486 5487 5488 5487 5486 5485 5488 5502 5523 5543 5557 5571 5583 5595 5605 5613 5622 5629 5637 5643 5650 5657 5662 5667 5672 5675 5678 5684 5686 5690 5693 5698 5701 5704 5708 5714 5717 5719 5721 5723 5724 5725 5727 5728
5488 5489 5488 5487 5487 5485 5484 5487 5503 5519 5538 5553 5566 5579 5590 5600 5609 5617 5624 5632 5640 5647 5653 5657 5661 5666 5670 5675 5678 5681 5684 5689 5694 5697 5699 5702 5704 5712 5712 5713 5713 5714 5716 5717 5717
5495 5492 5489 5488 5487 5486 5486 5490 5504 5519 5537 5554 5564 5578 5588 5598 5608 5614 5621 5629 5637 5644 5651 5656 5659 5662 5667 5670 5673 5678 5682 5686 5688 5690 5694 5698 5697 5707 5706 5705 5703 5704 5707 5706 5707
5496 5492 5490 5488 5487 5487 5488 5498 5510 5527 5541 5550 5561 5574 5584 5594 5604 5611 5620 5628 5635 5641 5646 5651 5655 5659 5662 5666 5670 5675 5678 5681 5684 5687 5689 5692 5693 5697 5697 5697 5696 5696 5692 5692 5692
5495 5488 5486 5488 5489 5491 5497 5510 5527 5535 5541 5552 5561 5574 5586 5596 5603 5611 5620 5627 5634 5639 5644 5649 5653 5656 5660 5663 5668 5672 5675 5678 5680 5682 5685 5686 5687 5693 5687 5681 5682 5680 5679 5676 5675
5496 5491 5488 5490 5493 5497 5509 5520 5525 5533 5542 5554 5567 5577 5587 5595 5602 5611 5618 5624 5631 5636 5641 5646 5651 5653 5658 5661 5665 5669 5672 5674 5675 5677 5678 5678 5680 5681 5678 5673 5668 5667 5665 5663 5661
5497 5496 5496 5497 5502 5512 5521 5530 5532 5539 5548 5558 5567 5579 5586 5594 5603 5610 5617 5624 5629 5635 5641 5644 5649 5653 5656 5660 5663 5667 5669 5670 5670 5671 5669 5669 5670 5669 5666 5663 5659 5654 5650 5648 5645
5503 5504 5504 5508 5516 5524 5529 5533 5539 5545 5555 5565 5574 5581 5589 5596 5603 5610 5617 5623 5628 5634 5638 5643 5647 5651 5654 5657 5660 5661 5665 5666 5665 5662 5661 5660 5659 5658 5657 5653 5647 5641 5636 5631 5627
5513 5516 5521 5526 5532 5536 5538 5542 5546 5552 5562 5570 5578 5585 5591 5597 5604 5610 5616 5622 5627 5631 5636 5640 5645 5650 5652 5653 5655 5658 5659 5658 5658 5657 5653 5650 5648 5649 5641 5635 5632 5627 5620 5615 5611
5528 5536 5539 5541 5543 5544 5549 5552 5554 5560 5567 5575 5580 5584 5592 5598 5604 5610 5615 5621 5626 5630 5635 5639 5642 5644 5647 5650 5653 5653 5653 5653 5652 5652 5650 5644 5639 5638 5634 5628 5622 5615 5608 5602 5591
5554 5554 5552 5552 5554 5556 5559 5562 5565 5569 5573 5578 5583 5587 5591 5597 5605 5609 5614 5620 5624 5628 5633 5637 5639 5642 5645 5648 5648 5649 5648 5647 5646 5644 5647 5635 5635 5627 5622 5616 5608 5599 5591 5580 5572
5569 5566 5564 5564 5563 5566 5567 5571 5573 5576 5579 5583 5587 5591 5595 5600 5605 5611 5615 5619 5623 5628 5631 5634 5637 5639 5641 5642 5644 5645 5644 5643 5641 5640 5638 5633 5624 5622 5615 5606 5596 5587 5575 5561 5553
5577 5577 5577 5575 5574 5576 5579 5580 5582 5584 5586 5589 5592 5595 5599 5603 5606 5610 5615 5619 5623 5627 5630 5633 5634 5635 5636 5639 5640 5640 5640 5638 5636 5633 5628 5627 5620 5617 5609 5601 5589 5577 5564 5549 5541
5590 5587 5584 5582 5583 5584 5586 5587 5588 5589 5591 5594 5596 5599 5602 5605 5608 5611 5615 5619 5623 5625 5627 5629 5631 5632 5632 5634 5635 5635 5635 5635 5632 5630 5627 5622 5617 5612 5605 5597 5587 5574 5561 5547 5538
5593 5592 5591 5590 5589 5590 5591 5591 5593 5594 5595 5597 5599 5601 5603 5606 5609 5612 5615 5618 5621 5623 5624 5626 5627 5628 5629 5631 5632 5633 5632 5632 5631 5627 5623 5619 5614 5611 5604 5597 5587 5576 5564 5552 5544
Wind_Speed
40 34 37 38 39 38 35 36 36 37 41 37 38 48 53 52 51 50 48 47 46 46 45 43 42 42 42 42 40 40 42 36 29 28 20 25 30 36 38 30 28 33 27 30 30
48 43 36 40 41 42 41 40 38 36 38 42 44 39 46 53 53 50 50 50 47 46 48 46 46 45 44 43 43 42 40 33 31 30 27 31 35 38 39 28 27 34 29 30 32
49 49 46 40 43 43 45 43 41 38 37 39 43 44 41 45 54 50 51 50 50 48 49 49 49 48 48 46 45 44 40 36 36 35 35 35 35 37 38 34 24 35 30 33 34
55 56 54 46 44 46 45 46 44 42 39 39 41 44 45 41 47 51 53 50 51 51 49 49 50 50 49 47 46 44 42 41 38 38 39 35 33 34 35 36 30 33 37 31 32
66 56 50 52 48 48 47 47 47 45 42 39 40 43 45 42 39 42 49 51 52 52 50 48 48 49 48 47 48 46 45 44 40 41 42 37 32 33 35 36 31 32 38 35 30
73 72 65 60 56 53 53 49 49 48 45 43 39 40 43 41 41 38 40 46 49 52 50 49 48 48 48 48 49 48 48 46 43 40 41 37 33 35 36 35 33 36 38 37 33
79 73 71 64 66 66 60 58 53 50 48 44 42 39 43 39 41 35 36 39 42 45 47 48 49 49 48 47 48 48 47 45 42 40 40 41 38 38 36 37 36 36 39 38 34
68 59 53 48 44 53 64 68 60 53 51 46 45 39 35 43 38 33 36 35 36 38 41 43 44 46 47 47 47 47 47 45 39 42 42 43 37 37 37 37 37 37 37 37 35
56 44 40 37 34 36 33 51 67 58 53 48 44 41 36 36 36 33 33 35 36 36 37 38 42 45 45 47 47 48 46 44 41 43 44 43 41 39 41 39 37 36 34 35 35
42 34 30 26 23 24 25 33 51 61 53 41 42 44 37 34 35 35 32 34 34 32 34 33 38 41 43 46 44 40 43 45 44 45 46 45 44 41 41 40 36 36 36 37 35
30 24 14 8 10 9 19 29 44 50 56 51 49 43 39 37 36 36 33 32 31 31 32 34 36 33 31 35 40 43 44 42 43 42 44 43 42 41 40 41 40 40 39 39 37
23 5 6 4 5 8 14 29 45 55 58 52 49 46 40 35 35 36 34 30 29 29 31 32 32 31 31 35 38 41 39 35 37 40 43 42 41 42 42 41 43 42 42 40 40
18 7 1 4 3 5 11 24 50 69 55 53 47 43 36 33 33 32 32 30 28 28 26 29 30 27 29 31 29 31 34 34 36 36 36 40 39 37 40 41 41 42 43 44 45
14 3 1 3 8 9 10 18 53 64 55 47 43 43 37 34 35 34 34 32 31 31 31 30 29 30 29 27 26 26 28 27 27 27 31 35 41 33 36 39 41 42 45 46 47
13 5 5 10 7 6 1 26 55 61 50 45 42 39 37 35 34 35 34 33 30 29 27 26 25 26 25 24 25 22 22 21 23 25 26 27 37 33 29 34 37 38 40 43 44
25 17 11 13 18 3 21 40 46 52 42 42 45 41 39 35 33 33 33 30 29 27 26 25 25 23 23 21 20 18 18 19 20 21 26 24 30 34 33 35 37 42 46 49 52
27 18 10 14 3 19 51 44 48 36 37 41 45 41 34 30 32 32 28 28 26 25 21 19 18 20 20 20 17 16 16 18 21 22 25 27 30 29 35 40 41 46 46 47 51
19 19 12 11 21 48 47 28 29 43 45 44 39 36 30 29 31 30 29 27 25 21 22 20 21 21 19 17 16 16 17 20 23 25 28 32 33 35 37 40 43 43 44 47 47
14 14 16 20 42 56 39 22 25 38 37 38 40 30 32 30 30 30 30 25 24 22 19 20 20 18 17 17 16 15 18 20 25 29 32 34 35 37 38 38 40 44 48 49 48
18 17 18 38 44 37 26 24 24 24 31 33 32 29 25 28 28 29 29 26 23 20 21 19 18 17 17 16 16 18 20 22 25 30 33 35 36 34 35 35 39 41 44 47 54
22 25 46 54 41 25 27 23 30 40 31 29 24 24 26 26 29 26 27 25 23 23 21 19 18 16 16 17 16 18 21 25 27 29 34 33 35 37 32 36 38 42 48 52 55
37 48 36 29 29 35 26 21 24 29 30 27 24 26 25 24 27 22 26 25 23 22 20 18 16 15 16 15 18 20 22 23 26 28 29 36 32 27 27 32 36 43 45 49 53
44 32 38 30 32 23 25 26 24 24 21 20 20 26 27 27 25 22 24 24 23 22 19 16 15 15 16 18 19 18 20 24 25 28 24 32 26 25 29 35 40 46 51 52 49
24 30 26 30 30 24 22 20 17 15 12 16 16 20 21 26 23 20 21 21 22 18 17 15 13 16 18 18 16 18 18 21 22 22 17 19 22 22 31 36 43 47 49 47 40
22 22 19 24 29 26 19 17 13 10 12 13 18 16 20 22 23 20 19 18 16 15 14 14 15 17 19 15 15 14 16 14 17 16 22 16 16 21 32 37 35 37 46 34 20
16 16 14 21 21 19 17 10 8 8 7 9 12 17 14 16 19 18 17 15 14 14 14 15 15 15 16 16 12 12 8 9 13 12 16 14 13 22 33 36 33 30 33 26 14
3 5 10 10 11 10 9 10 9 8 4 2 6 12 14 15 16 15 16 15 13 12 12 12 12 14 16 12 9 8 8 8 8 14 18 17 17 22 24 30 32 27 26 22 10
Wind_Direction
325 307 288 274 268 266 262 261 259 248 244 238 239 236 232 230 228 226 226 225 223 222 222 217 219 221 222 226 229 232 235 234 237 240 234 242 247 247 251 247 247 252 249 258 257
323 316 299 281 267 259 259 256 256 252 247 240 241 237 234 231 229 226 226 225 224 223 225 221 220 224 226 228 231 235 238 239 240 239 231 235 246 253 255 257 245 255 254 253 262
317 313 303 285 274 262 253 253 252 252 248 241 238 238 235 232 229 227 226 225 224 222 224 225 223 223 227 230 233 237 240 244 244 240 236 234 243 254 261 258 252 257 253 249 252
313 307 298 281 270 265 257 248 249 247 246 243 241 235 233 231 229 226 226 224 226 225 223 225 226 226 226 230 235 238 241 244 243 243 241 235 239 251 261 263 252 250 256 252 253
309 300 296 286 268 262 258 252 244 244 245 243 241 234 231 227 228 225 227 227 226 226 225 227 227 229 229 229 232 235 238 241 242 242 244 240 234 245 251 255 258 252 256 258 252
309 303 289 275 262 256 253 248 245 239 239 240 239 237 231 225 225 223 223 225 226 227 225 227 228 229 229 230 231 234 235 240 244 243 245 245 239 240 247 255 254 253 252 254 255
308 295 285 276 260 247 241 241 239 237 234 236 235 234 229 224 223 221 221 223 224 226 226 226 227 229 231 232 233 235 238 239 241 240 239 243 233 239 241 248 254 252 256 260 256
306 299 291 283 272 259 243 233 229 229 230 230 234 230 232 222 218 221 219 219 224 225 226 227 228 229 231 233 235 236 238 238 238 238 237 240 236 238 242 245 251 253 252 254 257
311 301 290 285 276 267 250 234 226 219 222 225 229 228 220 225 219 219 220 218 220 222 225 227 229 227 230 232 234 236 239 239 239 239 239 239 240 235 239 244 246 251 254 254 254
314 305 299 296 283 265 251 224 216 214 212 200 219 223 218 219 218 218 217 217 217 220 223 224 227 229 228 232 234 239 239 240 239 239 239 239 238 238 237 241 245 246 245 247 247
321 312 315 343 359 274 233 211 201 198 201 194 213 215 215 213 214 215 215 215 214 216 221 223 225 228 222 233 233 235 237 239 244 246 246 248 248 246 241 239 241 243 241 243 245
322 304 100 73 280 320 289 212 188 175 182 190 207 214 211 211 210 211 212 213 214 216 219 221 223 223 229 231 232 236 239 241 243 246 245 244 244 246 246 242 243 245 244 245 245
326 166 269 298 281 272 302 221 179 167 168 196 202 208 205 207 208 207 209 211 215 214 217 225 229 223 228 231 231 234 237 239 242 249 253 250 245 247 247 248 248 249 248 247 246
7 220 261 302 288 276 314 184 176 166 168 183 191 200 201 203 203 206 205 203 211 215 218 223 223 225 224 229 230 232 239 246 253 255 257 258 250 249 251 252 252 253 252 253 252
346 254 359 5 318 309 192 162 175 166 173 178 190 189 198 196 201 203 206 203 205 212 217 221 224 224 222 221 228 230 238 242 244 250 254 256 260 241 247 254 259 258 254 255 255
342 300 299 334 347 136 141 138 170 167 166 170 192 190 195 193 196 199 202 202 203 208 214 211 214 214 214 215 219 222 229 234 240 246 252 254 260 258 263 261 263 263 265 262 260
0 349 310 299 25 140 141 131 144 153 169 175 186 189 189 192 195 198 197 200 202 205 205 199 200 203 203 205 205 213 224 241 250 255 262 264 265 266 273 277 273 269 272 273 272
4 9 40 87 129 143 129 108 102 140 161 181 176 184 188 187 192 195 197 197 197 198 191 187 191 192 196 200 207 220 239 252 260 264 265 265 269 269 274 278 279 278 274 273 278
27 41 84 97 142 133 112 86 108 151 165 168 180 182 184 186 192 191 194 195 196 195 194 192 188 199 206 209 224 237 250 262 269 274 276 279 281 280 282 288 293 292 289 285 275
59 75 93 122 140 125 87 87 114 145 159 170 178 180 184 186 189 191 191 193 192 195 198 198 197 205 218 230 236 246 260 272 279 285 287 281 288 289 299 299 290 282 275 271 273
71 96 118 126 124 97 84 93 106 130 154 166 174 182 182 185 188 191 192 195 197 201 200 204 211 217 226 237 253 264 274 281 286 292 293 302 293 318 305 295 295 289 287 289 290
99 106 108 107 95 101 99 111 113 114 133 152 165 165 176 183 184 190 194 195 198 206 210 214 223 227 241 253 265 277 280 286 291 287 301 302 310 312 298 286 289 291 294 301 297
92 83 81 96 109 109 118 123 125 108 128 143 159 171 175 176 184 184 189 196 200 207 215 220 229 242 255 265 271 279 285 286 289 299 314 303 316 312 319 316 307 305 305 295 287
63 61 76 85 98 99 124 130 134 132 119 144 158 166 175 179 182 187 191 194 199 206 215 224 243 256 259 264 272 281 281 288 295 306 308 317 346 348 334 324 314 312 310 308 293
68 71 89 100 98 95 102 116 115 112 137 153 162 162 174 180 187 190 195 198 202 211 227 241 244 253 261 269 273 272 280 292 304 319 339 1 352 342 346 338 328 323 320 317 302
66 80 95 122 118 107 99 119 110 124 140 160 171 182 176 181 186 194 202 211 214 218 221 230 245 260 266 273 275 276 276 296 318 338 344 1 349 341 351 347 343 335 343 339 319
49 40 109 116 125 116 105 108 119 109 108 130 187 198 195 178 176 180 186 193 205 214 229 245 251 258 259 258 249 259 282 302 311 346 359 14 5 357 353 353 354 352 359 9 350